Andrés Domínguez

Recruteur en chef - Atlanta
5 Août 2027
Jeudi
Processus

Personnalité

Adaptabilité (9) Ambition (16) Controverse (6) Loyauté (9) Pression (8) Professionnalisme (5) Sportivité (12) Tempérament (11)

Profil

Style d'entraînement Démocratique
Diplôme Continental Pro
Détermination 1
Gestion des joueurs 6
Motivation 3
Discipline 1
Satisfaction professionnelle
69%
Fatigue
0%
Rôle Recruteur en chef
Salaire 19.6K p/s
Contrat 14.03.2030

Performance

Comportement Bon
Efficacité de l'entraînement
10%
Développement des joueurs
10%
Prévention des blessures
15%
Mise en place tactique
5%

Événements récents

A participé à une réunion de recrutement 14j
A participé à une réunion de recrutement 21j
A participé à une réunion de recrutement 28j
A participé à une réunion de recrutement 35j
A participé à une réunion de recrutement 42j
A participé à une réunion de recrutement 49j
Anniversaire 56j
A participé à une réunion de recrutement 56j

Suivi en cours

107
Joueur Club Statut Capacité Confiance Observé Dernière observation Dernier vote
Gastón Moreyra Almirante Brown Actif 105 / 121 40% 2 29.11.2026 -
Nicolás González Tacuarembo Actif 109 / 113 40% 2 29.11.2026 -
Gonzalo Gutiérrez San Martín Actif 96 / 92 40% 1 27.11.2026 -
Mateo Cáceres Talleres Actif 133 / 125 40% 1 27.11.2026 -
Antonio Napolitano Agropecuario Argentino Actif 116 / 113 40% 1 24.11.2026 -
Emiliano Mozzone Deportivo Maldonado Actif 111 / 88 40% 1 24.11.2026 -
Thiago Calone All Boys Actif 116 / 109 40% 1 23.11.2026 -
Lucas Arzamendia Atenas Actif 88 / 95 40% 1 23.11.2026 -
Matías Sosa Arsenal Actif 102 / 101 40% 1 22.11.2026 -
Tomás González Estudiantes Actif 96 / 124 40% 1 22.11.2026 -
Nicolás Heiz Maipú Actif 106 / 118 40% 1 21.11.2026 -
Maximiliano Rueda Patronato Actif 119 / 115 40% 1 21.11.2026 -
Luciano Fernández Central Espanol Actif 98 / 102 40% 1 20.11.2026 -
Siro Rosané Estudiantes Actif 127 / 105 40% 1 20.11.2026 -
Lucas Bassadone Atenas Actif 82 / 87 40% 1 18.11.2026 -
Blas Armoa Gimnasia y Esgrima Actif 108 / 116 40% 1 17.11.2026 -
Franco Suárez Racing Actif 86 / 102 40% 1 16.11.2026 -
Lautaro Lovazzano Portuguesa Actif 100 / 110 40% 1 16.11.2026 -
Carlos Herrera Huachipato Actif 91 / 97 40% 1 14.11.2026 -
Nicolás Brun Montevideo City Torque Actif 89 / 106 40% 1 14.11.2026 -
Francisco Funes Los Andes Actif 106 / 105 40% 2 13.11.2026 -
Fernando Bersano Madryn Actif 110 / 104 40% 1 12.11.2026 -
Javier Mena Deportivo Pereira Actif 94 / 118 40% 1 12.11.2026 -
César Munder Palestino Actif 97 / 95 40% 4 11.11.2026 -
Federico Versaci Talleres Actif 121 / 119 40% 1 11.11.2026 -
Lucas Rodríguez Albion Actif 103 / 118 40% 1 06.11.2026 -
Mateo Klimowicz Cerro Porteno Actif 111 / 120 40% 2 05.11.2026 -
Martín Sarrafiore O'Higgins Actif 113 / 117 40% 4 05.11.2026 -
José Barreto Quilmes Actif 120 / 106 40% 1 02.11.2026 -
Brian González Atenas Actif 93 / 114 40% 1 02.11.2026 -
Sebastián Zeballos Deportivo La Guaira Actif 97 / 112 40% 1 01.11.2026 -
Franco Bustamante Almagro Actif 114 / 93 40% 1 01.11.2026 -
Augusto Berrondo Tristán Suárez Actif 111 / 101 40% 1 31.10.2026 -
Axel Batista Quilmes Actif 118 / 105 40% 1 30.10.2026 -
Pablo López Chiapas Actif 79 / 100 40% 1 30.10.2026 -
Agustín Pereira Albion Actif 118 / 118 40% 1 27.10.2026 -
Juan Perdomo Deportivo La Guaira Actif 94 / 110 40% 1 27.10.2026 -
Lautaro Disanto Defensores Unidos Actif 113 / 125 40% 2 25.10.2026 -
Martín Campos Ferro Carril Oeste Actif 104 / 104 40% 1 25.10.2026 -
Mauro Martín Progreso Actif 102 / 90 40% 1 23.10.2026 -
Maximiliano Meléndez Chacarita Juniors Actif 118 / 117 40% 1 23.10.2026 -
Lawrence Ennali Houston Dynamo Actif 95 / 131 40% 1 22.10.2026 -
Ramón González Almirante Brown Actif 109 / 116 40% 1 22.10.2026 -
Juan Salas Patronato Actif 103 / 104 40% 1 19.10.2026 -
Duván Mósquera Aguilas Doradas Actif 113 / 96 40% 1 19.10.2026 -
Hugo Martínez Libertad Actif 115 / 121 40% 1 17.10.2026 -
Leonardo Olavarría Uruguay Montevideo Actif 98 / 109 40% 1 16.10.2026 -
Federico Acosta Miramar Misiones Actif 97 / 114 40% 1 15.10.2026 -
Franco Pérez Boston River Actif 113 / 116 40% 1 14.10.2026 -
Tomás López River Plate Actif 91 / 102 40% 2 13.10.2026 -
Matías Viguet Maipú Actif 112 / 114 40% 1 13.10.2026 -
Facundo Muñoa Boston River Actif 98 / 122 40% 1 11.10.2026 -
Álex Perdomo Defensor Sporting Actif 90 / 91 40% 1 09.10.2026 -
Marco Collao Audax Italiano Actif 107 / 113 40% 1 09.10.2026 -
Jordan Carrillo Guadalajara Actif 117 / 121 40% 2 08.10.2026 -
Franco Vedoya Central Norte Actif 103 / 119 40% 1 08.10.2026 -
Nahuel Sena Cerro Actif 112 / 111 40% 1 05.10.2026 -
Leandro Umpiérrez Penarol Actif 102 / 110 40% 1 05.10.2026 -
Edwin Cerrillo Club America Actif 97 / 108 40% 2 04.10.2026 -
Nicolás Retamar Ferro Carril Oeste Actif 107 / 116 40% 1 04.10.2026 -
Aldo López Santos Laguna Actif 97 / 108 40% 3 03.10.2026 -
Enzo Cabrera Danubio Actif 114 / 121 40% 1 02.10.2026 -
Emiliano Ancheta Nacional Actif 118 / 115 40% 1 30.09.2026 -
Tomás Ferreyra Defensores Unidos Actif 119 / 119 40% 1 30.09.2026 -
Raul Castillo Puebla Actif 92 / 102 40% 1 29.09.2026 -
Agustín Sosa Madryn Actif 110 / 123 40% 1 29.09.2026 -
Milton Valenzuela Atlas Actif 131 / 121 40% 1 26.09.2026 -
Ralph Orquin Leon Actif 129 / 117 40% 1 26.09.2026 -
Diego Magallanes Defensores Actif 106 / 114 40% 1 24.09.2026 -
Jhon Navia Junior Actif 106 / 110 40% 1 21.09.2026 -
Rodrigo González Mitre Actif 116 / 111 40% 1 21.09.2026 -
Julian Angulo Real Santander Actif 112 / 131 40% 1 20.09.2026 -
Pablo Cardona Cortulua Actif 119 / 117 40% 1 20.09.2026 -
Marco Miori Alvarado Actif 108 / 103 40% 1 18.09.2026 -
Santiago Simón Toluca Actif 121 / 143 40% 1 17.09.2026 -
Mateo Puerta Deportivo Cali Actif 105 / 123 40% 1 17.09.2026 -
Carlos Cantillo Jaguares Actif 114 / 115 40% 1 12.09.2026 -
Santiago Cuero Fortaleza CEIF Actif 106 / 110 40% 1 10.09.2026 -
Pablo López Tacuarembo Actif 88 / 95 40% 1 10.09.2026 -
Jáder Valencia Deportes Tolima Actif 107 / 106 40% 1 09.09.2026 -
Léider Riascos Llaneros Actif 102 / 129 40% 1 07.09.2026 -
Esteban Beltrán Jaguares Actif 113 / 96 40% 1 05.09.2026 -
Enzo Trinidad Colegiales Actif 100 / 114 40% 1 05.09.2026 -
Joider Micolta America de Cali Actif 116 / 99 40% 1 03.09.2026 -
Juan Manuel Requena Universitario Actif 114 / 105 40% 1 31.08.2026 -
Jimmy Evans Universidad Catolica Actif 101 / 101 40% 1 31.08.2026 -
Hugo Giraldo Valledupar Actif 107 / 119 40% 1 26.08.2026 -
Augusto Gallo Fenix Actif 105 / 103 40% 1 26.08.2026 -
Rodrigo López Pumas UNAM Actif 111 / 136 40% 1 24.08.2026 -
Jonathan Pérez Guadalajara Actif 132 / 141 40% 1 24.08.2026 -
Santiago Viera Cerrito Actif 93 / 115 40% 2 20.08.2026 -
Edwin Mosquera Santa Fe Actif 128 / 121 40% 1 20.08.2026 -
Marcus Vinicius Deportivo Pereira Actif 112 / 107 40% 1 19.08.2026 -
Léider Berrío Independiente Medellin Actif 109 / 122 40% 1 19.08.2026 -
Mauricio Isais Pachuca Actif 114 / 103 40% 3 17.08.2026 -
Máximo Alonso Central Espanol Actif 93 / 97 40% 1 17.08.2026 -
Kevin González Trujillanos Actif 97 / 113 40% 1 14.08.2026 -
Gonzalo Gómez Juventud Actif 98 / 107 40% 1 14.08.2026 -
Pável Pérez Toluca Actif 112 / 104 40% 1 12.08.2026 -
Eduardo Fereira Caracas Actif 92 / 117 40% 1 12.08.2026 -
Cristian Lima Uruguay Montevideo Actif 91 / 113 40% 1 11.08.2026 -
Valentín Amoroso Plaza Colonia Actif 113 / 114 40% 1 08.08.2026 -
Jhonier Salas Fortaleza CEIF Actif 93 / 111 40% 1 07.08.2026 -
Agustín Araujo Trujillanos Actif 104 / 107 40% 1 04.08.2026 -
Aldair Gutiérrez Atletico Bucaramanga Actif 120 / 107 40% 1 03.08.2026 -
Jáder Quiñónes Once Caldas Actif 128 / 131 40% 1 03.08.2026 -
Éwil Murillo Santa Fe Actif 121 / 115 40% 1 02.08.2026 -